| time (UTC) | temp F | wind direction | speed knots | gust knots | rain 1hr in | rain 24hr in | rain mn in | humidity % | barometer mb |
| 20260504081600 | 49 | 229 | 0.0 | 0.0 | 0.00 | 0.00 | 0.00 | 69 | 1014.9 |
| 20260504044542 | 55 | 277 | 0.0 | 0.0 | 0.00 | 0.00 | 0.00 | 57 | 1015.0 |
| 20260504043031 | 56 | 277 | 0.0 | 1.7 | 0.00 | 0.00 | 0.00 | 56 | 1014.8 |
| 20260504041528 | 56 | 277 | 0.0 | 0.0 | 0.00 | 0.00 | 0.00 | 54 | 1014.9 |
| 20260504040026 | 57 | 277 | 0.0 | 0.0 | 0.00 | 0.00 | 0.00 | 54 | 1015.0 |
| 20260504034525 | 58 | 277 | 0.0 | 0.0 | 0.00 | 0.00 | 0.00 | 53 | 1015.0 |
| 20260504033024 | 58 | 293 | 0.0 | 0.9 | 0.00 | 0.00 | 0.00 | 53 | 1015.0 |
| 20260504031528 | 59 | 293 | 0.0 | 0.0 | 0.00 | 0.00 | 0.00 | 51 | 1014.9 |
| 20260504030024 | 59 | 293 | 0.0 | 0.0 | 0.00 | 0.00 | 0.00 | 50 | 1014.8 |
| 20260504024532 | 60 | 184 | 0.0 | 1.7 | 0.00 | 0.00 | 0.00 | 50 | 1014.8 |
| 20260504023103 | 60 | 221 | 0.0 | 3.5 | 0.00 | 0.00 | 0.00 | 49 | 1014.6 |
| 20260504021639 | 61 | 129 | 0.0 | 1.7 | 0.00 | 0.00 | 0.00 | 49 | 1014.5 |
| 20260504020051 | 61 | 197 | 0.0 | 0.9 | 0.00 | 0.00 | 0.00 | 48 | 1014.3 |
| 20260504014617 | 62 | 223 | 0.0 | 0.9 | 0.00 | 0.00 | 0.00 | 47 | 1014.1 |
| 20260504013112 | 63 | 232 | 0.0 | 1.7 | 0.00 | 0.00 | 0.00 | 46 | 1014.0 |
| 20260504011601 | 63 | 152 | 0.0 | 1.7 | 0.00 | 0.00 | 0.00 | 45 | 1013.7 |
| 20260504004621 | 65 | 154 | 0.0 | 1.7 | 0.00 | 0.00 | 0.00 | 42 | 1013.7 |
| 20260504003117 | 66 | 169 | 0.0 | 1.7 | 0.00 | 0.00 | 0.00 | 42 | 1013.6 |
| 20260504001505 | 66 | 152 | 0.0 | 1.7 | 0.00 | 0.00 | 0.00 | 42 | 1013.5 |
| 20260504000137 | 67 | 182 | 0.0 | 1.7 | 0.00 | 0.00 | 0.00 | 40 | 1013.2 |
| 20260503234547 | 68 | 204 | 0.0 | 1.7 | 0.00 | 0.00 | 0.00 | 39 | 1013.1 |
| 20260503231601 | 69 | 219 | 0.0 | 1.7 | 0.00 | 0.00 | 0.00 | 37 | 1013.3 |
| 20260503230041 | 69 | 196 | 0.0 | 3.5 | 0.00 | 0.00 | 0.00 | 36 | 1013.3 |
| 20260503224620 | 70 | 210 | 0.0 | 1.7 | 0.00 | 0.00 | 0.00 | 35 | 1013.3 |
| 20260503223053 | 71 | 191 | 0.0 | 1.7 | 0.00 | 0.00 | 0.00 | 34 | 1013.2 |
| 20260503221631 | 72 | 172 | 0.0 | 3.5 | 0.00 | 0.00 | 0.00 | 33 | 1013.2 |
| 20260503220106 | 72 | 245 | 0.0 | 8.7 | 0.00 | 0.00 | 0.00 | 33 | 1013.3 |
| 20260503214559 | 73 | 164 | 0.0 | 1.7 | 0.00 | 0.00 | 0.00 | 34 | 1013.6 |
| 20260503213051 | 73 | 173 | 0.0 | 1.7 | 0.00 | 0.00 | 0.00 | 33 | 1013.6 |
| 20260503211618 | 73 | 167 | 0.0 | 6.1 | 0.00 | 0.00 | 0.00 | 34 | 1013.7 |
| 20260503210055 | 73 | 128 | 0.0 | 3.5 | 0.00 | 0.00 | 0.00 | 32 | 1013.9 |
| 20260503204540 | 73 | 253 | 0.0 | 1.7 | 0.00 | 0.00 | 0.00 | 34 | 1014.0 |
| 20260503203102 | 73 | 222 | 0.0 | 2.6 | 0.00 | 0.00 | 0.00 | 35 | 1014.4 |
| 20260503201532 | 72 | 111 | 0.0 | 4.3 | 0.00 | 0.00 | 0.00 | 35 | 1014.6 |
| 20260503200109 | 72 | 180 | 0.0 | 1.7 | 0.00 | 0.00 | 0.00 | 37 | 1015.1 |
| 20260503194547 | 71 | 132 | 0.0 | 2.6 | 0.00 | 0.00 | 0.00 | 36 | 1015.4 |
| 20260503190037 | 69 | 103 | 0.0 | 3.5 | 0.00 | 0.00 | 0.00 | 36 | 1016.2 |
| 20260503184551 | 69 | 162 | 0.9 | 8.7 | 0.00 | 0.00 | 0.00 | 38 | 1016.4 |
| 20260503183058 | 68 | 169 | 0.0 | 3.5 | 0.00 | 0.00 | 0.00 | 39 | 1016.6 |
| 20260503181545 | 66 | 164 | 0.0 | 1.7 | 0.00 | 0.00 | 0.00 | 41 | 1016.7 |
| 20260503180052 | 65 | 227 | 0.0 | 2.6 | 0.00 | 0.00 | 0.00 | 42 | 1016.9 |
| 20260503174533 | 64 | 212 | 0.0 | 2.6 | 0.00 | 0.00 | 0.00 | 43 | 1017.2 |
| 20260503173134 | 63 | 159 | 0.0 | 1.7 | 0.00 | 0.00 | 0.00 | 44 | 1017.2 |
| 20260503171613 | 63 | 187 | 0.0 | 1.7 | 0.00 | 0.00 | 0.00 | 44 | 1017.4 |